Regional Weather Roundup
Issued by NWS Glasgow, MT

Home | Current Version | Previous Version | Text Only | Print | Product List | Glossary On
Versions: 1 2 3 4 5 6 7 8 9 10 11 12 13 14 15 16 17 18 19 20 21 22 23 24 25 26 27 28 29 30 31 32 33 34 35 36 37 38 39 40 41 42 43 44 45 46 47 48 49 50
000
ASUS45 KGGW 271615
RWRGGW
HOURLY REGIONAL WEATHER ROUNDUP FOR NORTHEAST MONTANA
NATIONAL WEATHER SERVICE GLASGOW MONTANA
1000 AM MDT SAT MAY 27 2017

NOTE: "FAIR" INDICATES FEW OR NO CLOUDS BELOW 12,000 FEET WITH NO
SIGNIFICANT WEATHER AND/OR OBSTRUCTIONS TO VISISBILITY.

NORTHEAST MONTANA


CITY           SKY/WX    TMP DP  RH WIND       PRES   REMARKS
GLASGOW        SUNNY     65  41  41 NW9       29.91S
PLENTYWOOD       N/A     67  34  29 NW8G20      N/A
WOLF POINT     MOSUNNY   69  41  36 W10G20    29.89S
JORDAN           N/A     65  38  36 W21       29.95F
WINNETT          N/A     70  33  25 W12G24      N/A
SIDNEY         MOSUNNY   63  40  42 W12       29.89S
GLENDIVE       NOT AVBL
MALTA            N/A     63  44  50 W10         N/A
OPHEIM           N/A     59  39  47 W7        29.75S

FORT PECK REPORTS


CITY           SKY/WX    TMP DP  RH WIND       PRES   REMARKS
FORT PECK        N/A     63  45  51 S6          N/A
THE PINES        N/A     68  30  24 CALM        N/A

SOUTHEAST MONTANA


CITY           SKY/WX    TMP DP  RH WIND       PRES   REMARKS
BILLINGS       MOSUNNY   59  40  49 SW13      30.08S
MILES CITY     CLOUDY    62  37  39 W14       29.99S
BAKER          CLOUDY    62  40  44 W20       29.98S
LIVINGSTON     SUNNY     60  38  43 SW15G24   30.15R

CENTRAL MONTANA


CITY           SKY/WX    TMP DP  RH WIND       PRES   REMARKS
HAVRE          MOSUNNY   63  41  44 SW14      29.99R
LEWISTOWN      CLOUDY    57  42  57 W9        30.07S
GREAT FALLS    SUNNY     61  40  45 SW13      30.09R
CUT BANK       SUNNY     67  37  33 W16G22    30.06R
HELENA         SUNNY     57  43  59 CALM      30.15S
BUTTE          SUNNY     55  34  45 CALM      30.21S
BOZEMAN        SUNNY     57  39  51 CALM      30.18S

WESTERN MONTANA


CITY           SKY/WX    TMP DP  RH WIND       PRES   REMARKS
MISSOULA       CLOUDY    57  45  64 CALM      30.19R
KALISPELL      NOT AVBL

NORTH DAKOTA


CITY           SKY/WX    TMP DP  RH WIND       PRES   REMARKS
WILLISTON      MOSUNNY   68  42  38 W14       29.86S
DICKINSON      SUNNY     64  37  36 W21       29.90F
MINOT          SUNNY     68  41  37 W15       29.81S
BISMARCK       SUNNY     70  42  36 W17G24    29.89S

SOUTHERN SASKATCHEWAN


CITY           SKY/WX    TMP DP  RH WIND       PRES   REMARKS
REGINA         PTSUNNY   61  37  41 W7        29.80F
ESTEVAN        MOSUNNY   66  41  39 NW21G29   29.80S
SWIFT CURRENT  MOSUNNY   63  46  55 NW18      29.88R




USA.gov is the U.S. government's official web portal to all federal, state and local government web resources and services.